• MPC Preparation (Info)

  • MPEC 2010-X01 : 2010 WW8

    The following Minor Planet Electronic Circular may be linked-to from your own Web pages, but must not otherwise be redistributed electronically.

    A form allowing access to any MPEC is at the bottom of this page.


    Read MPEC 2010-W60 Read MPEC 2010-X02


    M.P.E.C. 2010-X01                                Issued 2010 Dec. 1, 04:58 UT
    
         The Minor Planet Electronic Circulars contain information on unusual
             minor planets and routine data on comets.  They are published
       on behalf of Commission 20 of the International Astronomical Union by the
              Minor Planet Center, Smithsonian Astrophysical Observatory,
                              Cambridge, MA 02138, U.S.A.
    
                 Prepared using the Tamkin Foundation Computer Network
    
                                  MPC@CFA.HARVARD.EDU
           URL https://www.minorplanetcenter.org/iau/mpc.html  ISSN 1523-6714
    
                                       2010 WW8
    
    Observations:
         K10W08W* C2010 11 30.37333 05 11 26.62 +28 08 47.6          19.5 VrEX001G96
         K10W08W  C2010 11 30.38010 05 11 34.62 +28 08 21.6          19.1 VrEX001G96
         K10W08W  C2010 11 30.38699 05 11 42.72 +28 07 55.1          19.3 VrEX001G96
         K10W08W  C2010 11 30.39382 05 11 50.78 +28 07 28.4          19.4 VrEX001G96
         K10W08W  C2010 11 30.42324 05 12 25.55 +28 05 33.9          19.7 RcEX001854
         K10W08W  C2010 11 30.42788 05 12 31.07 +28 05 12.9          19.4 RcEX001854
         K10W08W  C2010 11 30.43249 05 12 36.64 +28 04 55.1          19.4 RcEX001854
         K10W08W  C2010 11 30.43730 05 12 42.33 +28 04 33.9          19.7 VrEX001G96
         K10W08W  C2010 11 30.43786 05 12 43.02 +28 04 32.0          19.9 VrEX001G96
         K10W08W  C2010 11 30.43841 05 12 43.59 +28 04 30.3          20.5 VrEX001G96
         K10W08W  C2010 11 30.43896 05 12 44.42 +28 04 26.9          19.8 VrEX001G96
         K10W08W  C2010 11 30.43955 05 12 45.10 +28 04 24.8          19.6 VrEX001G96
    
    Observer details:
    854 Sabino Canyon Observatory, Tucson.  Observer J. E. McGaha.  0.36-m f/10.0
        Schmidt-Cassegrain + CCD.
    G96 Mt. Lemmon Survey.  Observer A. Boattini.  Measurers J. D. Ahern,
        E. C. Beshore, A. Boattini, G. J. Garradd, A. R. Gibbs, A. D. Grauer,
        R. E. Hill, R. A. Kowalski, S. M. Larson, R. H. McNaught.  1.5-m reflector
        + CCD.
    
    Orbital elements:
    2010 WW8                                                 Earth MOID = 0.0177 AU
    Epoch 2010 Nov. 20.0 TT = JDT 2455520.5                 MPC
    M   1.68278              (2000.0)            P               Q
    n   0.31668669     Peri.  155.21186     +0.64971061     -0.75962515
    a   2.1316514      Node   254.25446     +0.69231697     +0.60707542
    e   0.5297071      Incl.    1.73150     +0.31396393     +0.23330037
    P   3.11           H   26.1           G   0.15
    From 12 observations 2010 Nov. 30-30.  E-assumed.
    
    Ephemeris:
    2010 WW8                 a,e,i = 2.13, 0.53, 2                   q = 1.0025
    Date    TT    R. A. (2000) Decl.     Delta      r     Elong.  Phase     V
    2010 11 30    05 03.26   +28 31.9    0.0349   1.021   168.5    11.1    19.5
    2010 12 10    06 50.34   +20 44.1    0.0715   1.051   155.8    22.6    21.6
    2010 12 20    07 14.84   +17 53.0    0.116    1.093   159.5    18.3    22.6
    2010 12 30    07 21.45   +16 55.3    0.165    1.145   167.4    10.8    23.2
    
                           (Last issue was M.P.E.C. 2010-W60)
    
    Carl W. Hergenrother         (C) Copyright 2010 MPC           M.P.E.C. 2010-X01
    

    Read MPEC 2010-W60 Read MPEC 2010-X02


    MPEC number:

    Enter an MPEC number in one of the following forms:

    • 1997-B01 (the full form)
    • J97B01 (the packed version of the full form)
    • B01 (the abbreviated form)